Lansing, MI

4:12 AM EST on February 22, 2018 (GMT -0500)
Capital City

Weather History for KLAN - December, 2011

Change the Weather History Date:

Tuesday, December 27, 2011

  Actual Average Record
Temperature  
Mean Temperature 32 °F 25 °F  
Max Temperature 37 °F 32 °F 60 °F (2008)
Min Temperature 27 °F 19 °F -10 °F (1894)
Degree Days  
Heating Degree Days 33 40  
Month to date heating degree days 849 977  
Since 1 July heating degree days 2105 2391  
Cooling Degree Days 0 0  
Month to date cooling degree days 0 0  
Year to date cooling degree days 767 625  
Moisture  
Dew Point 30 °F    
Average Humidity 85    
Maximum Humidity 100    
Minimum Humidity 70    
Precipitation  
Precipitation 0.37 in 0.05 in 1.05 in (1942)
Month to date precipitation 1.84 1.64  
Year to date precipitation 38.51 31.54  
Snow  
Snow 1.70 in 0.50 in 7.80 in (1981)
Month to date snowfall 3.6 11.1  
Since 1 July snowfall 11.8 14.9  
Snow Depth 0.00 in    
Sea Level Pressure  
Sea Level Pressure 29.62 in    
Wind  
Wind Speed 9 mph (West)    
Max Wind Speed 25 mph    
Max Gust Speed 36 mph    
Visibility 4 miles    
Events Fog , Rain , Snow    
T = Trace of Precipitation, MM = Missing Value Source: NWS Daily Summary

Daily Weather History Graph

Daily Weather History Graph

Search for Another Location

Airport or City:

Trip Planner

Search our weather history database for the weather conditions in past years. The results will help you decide how hot, cold, wet, or windy it might be!

Date:

Astronomy

Dec. 27, 2011 Rise Set
Actual Time 8:07 AM EST 5:10 PM EST
Civil Twilight 7:35 AM EST 5:43 PM EST
Nautical Twilight 7:00 AM EST 6:18 PM EST
Astronomical Twilight 6:25 AM EST 6:53 PM EST
Moon 9:58 AM EST (12/27) 8:48 PM EST (12/27)
Length of Visible Light 10h 07m
Length of Day
9h 02m
Waxing Crescent, 11% of the Moon is Illuminated
Dec 27
Waxing Crescent
Jan 1
First Quarter
Jan 9
Full
Jan 16
Last Quarter
Jan 23
New

Hourly Weather History & Observations

Time (EST) Temp. Windchill Dew Point Humidity Pressure Visibility Wind Dir Wind Speed Gust Speed Precip Events Conditions
12:53 AM 37.0 °F 28.1 °F 28.9 °F 73% 29.88 in 10.0 mi South 15.0 mph - N/A   Mostly Cloudy
1:53 AM 37.0 °F 29.3 °F 28.0 °F 70% 29.85 in 10.0 mi SSW 11.5 mph - N/A   Overcast
2:53 AM 37.0 °F 31.0 °F 28.0 °F 70% 29.80 in 10.0 mi South 8.1 mph - N/A   Overcast
3:53 AM 37.0 °F 31.0 °F 28.0 °F 70% 29.79 in 10.0 mi SSW 8.1 mph - N/A   Overcast
4:53 AM 37.0 °F 29.8 °F 28.0 °F 70% 29.75 in 10.0 mi South 10.4 mph - N/A   Overcast
5:53 AM 37.0 °F 30.4 °F 28.0 °F 70% 29.73 in 10.0 mi South 9.2 mph - N/A   Overcast
6:53 AM 34.0 °F 26.6 °F 30.0 °F 85% 29.69 in 4.0 mi South 9.2 mph - 0.01 in Snow Light Snow
7:32 AM 33.8 °F 28.6 °F 30.2 °F 87% 29.64 in 2.5 mi South 5.8 mph - 0.02 in Snow Light Snow
7:40 AM 33.8 °F 29.6 °F 30.2 °F 87% 29.64 in 1.8 mi SSE 4.6 mph - 0.03 in Snow Light Snow
7:53 AM 33.1 °F 27.7 °F 30.9 °F 92% 29.66 in 1.2 mi SSE 5.8 mph - 0.04 in Snow Light Snow
8:19 AM 33.8 °F 30.8 °F 30.2 °F 87% 29.62 in 0.8 mi SSE 3.5 mph - 0.02 in Snow Light Snow
8:39 AM 33.8 °F - 32.0 °F 93% 29.60 in 0.8 mi Calm Calm - 0.03 in Snow Light Snow
8:53 AM 32.0 °F - 32.0 °F 100% 29.63 in 0.5 mi Calm Calm - 0.05 in Fog , Snow Snow
9:49 AM 33.8 °F 30.8 °F 32.0 °F 93% 29.61 in 0.5 mi SSW 3.5 mph - 0.06 in Fog , Snow Snow
9:53 AM 33.1 °F 28.7 °F 32.0 °F 96% 29.63 in 0.5 mi SW 4.6 mph - 0.06 in Fog , Snow Snow
10:12 AM 33.8 °F 29.6 °F 32.0 °F 93% 29.60 in 0.5 mi SSW 4.6 mph - 0.02 in Fog , Snow Snow
10:53 AM 33.1 °F - 32.0 °F 96% 29.60 in 0.5 mi Calm Calm - 0.07 in Snow Light Snow
11:53 AM 33.1 °F - 32.0 °F 96% 29.54 in 1.2 mi Calm Calm - 0.02 in Snow Light Snow
12:53 PM 33.1 °F - 32.0 °F 96% 29.48 in 2.0 mi Calm Calm - 0.00 in Snow Light Snow
1:50 PM 33.8 °F 29.6 °F 32.0 °F 93% 29.44 in 1.2 mi West 4.6 mph - 0.01 in Snow Light Snow
1:53 PM 33.1 °F 28.7 °F 32.0 °F 96% 29.46 in 1.2 mi West 4.6 mph - 0.01 in Snow Light Snow
2:53 PM 33.1 °F 26.1 °F 32.0 °F 96% 29.47 in 1.0 mi WNW 8.1 mph - 0.04 in Snow Light Snow
3:53 PM 33.1 °F 25.5 °F 32.0 °F 96% 29.49 in 1.5 mi NW 9.2 mph - 0.02 in Snow Light Snow
4:25 PM 33.8 °F 27.0 °F 32.0 °F 93% 29.49 in 1.0 mi NW 8.1 mph - 0.01 in Snow Light Snow
4:47 PM 33.8 °F 26.4 °F 32.0 °F 93% 29.49 in 2.0 mi WNW 9.2 mph - 0.02 in Snow Light Snow
4:53 PM 33.8 °F 27.0 °F 32.0 °F 93% 29.50 in 2.0 mi NW 8.1 mph - N/A Snow Light Snow
5:25 PM 33.8 °F 24.3 °F 33.8 °F 100% 29.51 in 2.0 mi NW 13.8 mph - 0.01 in Rain Light Rain
5:53 PM 34.0 °F 26.6 °F 33.1 °F 96% 29.55 in 2.0 mi NW 9.2 mph - 0.03 in Rain , Snow Light Rain
6:15 PM 35.6 °F 26.6 °F 33.8 °F 93% 29.54 in 6.0 mi NW 13.8 mph 21.9 mph 0.00 in Rain , Snow Light Rain
6:31 PM 33.8 °F 25.3 °F 30.2 °F 87% 29.55 in 9.0 mi NNW 11.5 mph 21.9 mph 0.00 in Snow Light Snow
6:53 PM 34.0 °F 24.2 °F 30.0 °F 85% 29.60 in 9.0 mi NNW 15.0 mph 23.0 mph 0.00 in Snow Light Snow
7:53 PM 32.0 °F 20.1 °F 26.1 °F 79% 29.65 in 9.0 mi NW 19.6 mph 35.7 mph 0.00 in   Overcast
8:53 PM 30.2 °F 18.1 °F 24.8 °F 80% 29.66 in 9.0 mi NW 18.4 mph 28.8 mph N/A Snow Light Snow
9:53 PM 28.9 °F 15.1 °F 24.1 °F 82% 29.73 in 9.0 mi NW 23.0 mph 27.6 mph 0.00 in Snow Light Snow
10:53 PM 27.0 °F 12.8 °F 21.0 °F 78% 29.77 in 10.0 mi NW 21.9 mph 28.8 mph 0.00 in   Overcast
11:53 PM 27.0 °F 12.8 °F 19.0 °F 72% 29.80 in 10.0 mi WNW 21.9 mph 31.1 mph N/A   Overcast